TimeAST,TemperatureF,Dew PointF,Humidity,Sea Level PressureIn,VisibilityMPH,Wind Direction,Wind SpeedMPH,Gust SpeedMPH,PrecipitationIn,Events,Conditions,WindDirDegrees,DateUTC
12:56 AM,82.0,75.0,79,29.92,10.0,Calm,Calm,-,0.00,Rain,Light Rain,0,2013-09-18 04:56:00
1:56 AM,82.0,75.0,79,29.90,10.0,Calm,Calm,-,0.00,,Scattered Clouds,0,2013-09-18 05:56:00
2:56 AM,81.0,75.0,82,29.88,10.0,ESE,3.5,-,N/A,,Scattered Clouds,110,2013-09-18 06:56:00
3:56 AM,81.0,73.9,79,29.88,10.0,Calm,Calm,-,N/A,,Scattered Clouds,0,2013-09-18 07:56:00
4:56 AM,80.1,73.9,81,29.88,10.0,Calm,Calm,-,N/A,,Scattered Clouds,0,2013-09-18 08:56:00
5:56 AM,80.1,73.9,81,29.90,10.0,Calm,Calm,-,N/A,,Partly Cloudy,0,2013-09-18 09:56:00
6:56 AM,81.0,75.0,82,29.91,10.0,Calm,Calm,-,N/A,,Partly Cloudy,0,2013-09-18 10:56:00
7:56 AM,84.0,75.0,74,29.93,10.0,ESE,4.6,-,N/A,,Scattered Clouds,110,2013-09-18 11:56:00
8:56 AM,86.0,75.0,70,29.94,10.0,East,10.4,-,N/A,,Scattered Clouds,100,2013-09-18 12:56:00
9:56 AM,89.1,75.0,63,29.94,10.0,East,8.1,-,N/A,,Partly Cloudy,90,2013-09-18 13:56:00
10:56 AM,88.0,75.0,65,29.93,10.0,ESE,10.4,-,0.00,,Scattered Clouds,120,2013-09-18 14:56:00
11:56 AM,84.9,75.9,74,29.93,9.0,NE,13.8,17.3,0.01,Rain,Light Rain,40,2013-09-18 15:56:00
12:56 PM,80.1,73.9,81,29.91,9.0,ENE,3.5,16.1,0.82,Rain,Light Rain,70,2013-09-18 16:56:00
1:56 PM,86.0,77.0,74,29.88,10.0,NE,8.1,-,0.01,,Scattered Clouds,50,2013-09-18 17:56:00
2:56 PM,88.0,75.0,65,29.87,10.0,East,5.8,-,N/A,,Scattered Clouds,90,2013-09-18 18:56:00
3:56 PM,88.0,77.0,70,29.87,10.0,East,9.2,-,N/A,,Scattered Clouds,90,2013-09-18 19:56:00
4:56 PM,86.0,75.9,72,29.88,10.0,East,8.1,-,N/A,,Scattered Clouds,90,2013-09-18 20:56:00
5:56 PM,84.9,75.0,72,29.90,10.0,ENE,5.8,-,N/A,,Scattered Clouds,60,2013-09-18 21:56:00
6:56 PM,86.0,75.0,70,29.91,10.0,SSE,3.5,-,N/A,,Scattered Clouds,150,2013-09-18 22:56:00
7:56 PM,84.9,75.0,72,29.94,10.0,Calm,Calm,-,N/A,,Partly Cloudy,0,2013-09-18 23:56:00
8:56 PM,82.9,75.0,77,29.96,10.0,Calm,Calm,-,N/A,,Partly Cloudy,0,2013-09-19 00:56:00
9:56 PM,82.9,73.9,74,29.97,10.0,Calm,Calm,-,N/A,,Partly Cloudy,0,2013-09-19 01:56:00
10:56 PM,82.0,75.0,79,29.97,10.0,Calm,Calm,-,N/A,,Partly Cloudy,0,2013-09-19 02:56:00
11:56 PM,82.0,73.9,76,29.97,10.0,Calm,Calm,-,N/A,,Scattered Clouds,0,2013-09-19 03:56:00